When you browse on this site, cookies collect data to enhance your experience and personalize the content and advertising you see.
Visit our Privacy Policy to learn more. By continuing to use the site, you agree to this use of cookies and data.
  • In Czech Republic
  • List of Countries
  • For 7 days
  • Water Temperature
  • Weather Map
  • Weather Widgets
  • user-avatar
    Login

    Hourly Weather Przychody

    Today, 31 May, Sunday

    Time Temperature Precipitation Wind Pressure Humidity
    00:00 +7°C° 0.8 mm 6 mps 732 mmHg 88%
    01:00 +6°C° 0 mm 7 mps 731 mmHg 92%
    02:00 +6°C° 2.7 mm 7 mps 731 mmHg 93%
    03:00 +6°C° 2.7 mm 7 mps 730 mmHg 95%
    04:00 +6°C° 2.7 mm 7 mps 730 mmHg 96%
    05:00 +8°C° 2.8 mm 7 mps 730 mmHg 96%
    06:00 +8°C° 2.8 mm 7 mps 730 mmHg 96%
    07:00 +9°C° 0 mm 6 mps 730 mmHg 96%
    08:00 +9°C° 0.9 mm 6 mps 730 mmHg 95%
    09:00 +9°C° 0.9 mm 6 mps 730 mmHg 95%
    10:00 +10°C° 0.9 mm 6 mps 730 mmHg 94%
    11:00 +10°C° 0.4 mm 6 mps 730 mmHg 93%
    12:00 +10°C° 0.4 mm 6 mps 731 mmHg 93%
    13:00 +12°C° 0 mm 5 mps 731 mmHg 93%
    14:00 +12°C° 0.1 mm 5 mps 731 mmHg 92%
    15:00 +12°C° 0.1 mm 5 mps 732 mmHg 91%
    16:00 +13°C° 0.1 mm 4 mps 732 mmHg 90%
    17:00 +13°C° 0.2 mm 4 mps 732 mmHg 91%
    18:00 +13°C° 0.2 mm 3 mps 733 mmHg 92%
    19:00 +13°C° 0.2 mm 3 mps 733 mmHg 93%
    20:00 +12°C° 0.1 mm 3 mps 733 mmHg 94%
    21:00 +11°C° 0.1 mm 3 mps 733 mmHg 94%
    22:00 +11°C° 0.1 mm 3 mps 734 mmHg 94%
    23:00 +10°C° 0 mm 3 mps 734 mmHg 94%

    Tomorrow, 1 June, Monday

    Time Temperature Precipitation Wind Pressure Humidity
    00:00 +10°C° 0 mm 3 mps 734 mmHg 94%
    01:00 +9°C° 0 mm 3 mps 735 mmHg 94%
    02:00 +9°C° 0 mm 3 mps 735 mmHg 95%
    03:00 +9°C° 0 mm 3 mps 735 mmHg 95%
    04:00 +8°C° 0 mm 3 mps 735 mmHg 96%
    05:00 +9°C° 0 mm 3 mps 735 mmHg 92%
    06:00 +10°C° 0 mm 3 mps 735 mmHg 89%
    07:00 +11°C° 0 mm 3 mps 736 mmHg 86%
    08:00 +13°C° 0 mm 4 mps 736 mmHg 77%
    09:00 +14°C° 0 mm 5 mps 736 mmHg 68%
    10:00 +16°C° 0 mm 5 mps 736 mmHg 60%
    11:00 +16°C° 0 mm 6 mps 736 mmHg 58%
    12:00 +16°C° 0 mm 6 mps 736 mmHg 57%
    13:00 +16°C° 0 mm 6 mps 736 mmHg 55%
    14:00 +16°C° 0 mm 6 mps 736 mmHg 57%
    15:00 +15°C° 0 mm 6 mps 736 mmHg 59%
    16:00 +15°C° 0 mm 6 mps 735 mmHg 61%
    17:00 +13°C° 0 mm 5 mps 735 mmHg 65%
    18:00 +12°C° 0 mm 4 mps 735 mmHg 69%
    19:00 +11°C° 0 mm 4 mps 735 mmHg 72%
    20:00 +10°C° 0 mm 3 mps 735 mmHg 73%
    21:00 +10°C° 0 mm 3 mps 735 mmHg 74%
    22:00 +9°C° 0 mm 2 mps 735 mmHg 75%
    23:00 +9°C° 0.1 mm 2 mps 735 mmHg 79%

    Day after tomorrow, 2 June, Tuesday

    Time Temperature Precipitation Wind Pressure Humidity
    00:00 +9°C° 0.1 mm 2 mps 735 mmHg 83%
    01:00 +9°C° 0.1 mm 2 mps 735 mmHg 86%
    02:00 +8°C° 0.2 mm 2 mps 734 mmHg 89%
    03:00 +8°C° 0.2 mm 2 mps 734 mmHg 92%
    04:00 +8°C° 0.2 mm 2 mps 734 mmHg 95%
    05:00 +9°C° 0.2 mm 3 mps 734 mmHg 92%
    06:00 +8°C° 0.2 mm 4 mps 734 mmHg 89%
    07:00 +10°C° 0.2 mm 4 mps 734 mmHg 86%
    08:00 +11°C° 0.1 mm 4 mps 733 mmHg 78%
    09:00 +13°C° 0.1 mm 5 mps 733 mmHg 70%
    10:00 +14°C° 0.1 mm 5 mps 733 mmHg 62%
    11:00 +14°C° 0.1 mm 5 mps 732 mmHg 60%
    12:00 +15°C° 0.1 mm 5 mps 732 mmHg 57%
    13:00 +15°C° 0.1 mm 5 mps 732 mmHg 55%
    14:00 +15°C° 0.1 mm 5 mps 731 mmHg 56%
    15:00 +15°C° 0.1 mm 5 mps 731 mmHg 57%
    16:00 +15°C° 0.1 mm 5 mps 731 mmHg 57%
    17:00 +14°C° 0 mm 4 mps 730 mmHg 63%
    18:00 +13°C° 0 mm 4 mps 730 mmHg 69%
    19:00 +11°C° 0 mm 3 mps 730 mmHg 75%
    20:00 +10°C° 0 mm 3 mps 730 mmHg 78%
    21:00 +9°C° 0 mm 2 mps 730 mmHg 81%
    22:00 +8°C° 0 mm 2 mps 730 mmHg 84%
    23:00 +8°C° 0 mm 2 mps 730 mmHg 86%

    3 June, Wednesday

    Time Temperature Precipitation Wind Pressure Humidity
    00:00 +7°C° 0 mm 2 mps 730 mmHg 88%
    01:00 +7°C° 0 mm 2 mps 729 mmHg 90%
    02:00 +6°C° 0 mm 2 mps 729 mmHg 91%
    03:00 +6°C° 0 mm 2 mps 729 mmHg 93%
    04:00 +6°C° 0 mm 2 mps 729 mmHg 94%
    05:00 +8°C° 0 mm 2 mps 729 mmHg 89%
    06:00 +9°C° 0 mm 2 mps 729 mmHg 84%
    07:00 +12°C° 0 mm 2 mps 729 mmHg 79%
    08:00 +12°C° 0.1 mm 3 mps 729 mmHg 73%
    09:00 +14°C° 0.1 mm 3 mps 729 mmHg 66%
    10:00 +16°C° 0.1 mm 3 mps 728 mmHg 60%
    11:00 +16°C° 0.1 mm 3 mps 728 mmHg 57%
    12:00 +17°C° 0.1 mm 3 mps 728 mmHg 55%
    13:00 +17°C° 0.1 mm 3 mps 728 mmHg 53%
    14:00 +17°C° 0 mm 3 mps 727 mmHg 52%
    15:00 +17°C° 0 mm 3 mps 727 mmHg 52%
    16:00 +17°C° 0 mm 3 mps 727 mmHg 51%
    17:00 +16°C° 0 mm 2 mps 727 mmHg 57%
    18:00 +15°C° 0 mm 2 mps 726 mmHg 63%
    19:00 +13°C° 0 mm 1 mps 726 mmHg 69%
    20:00 +12°C° 0 mm 1 mps 726 mmHg 70%
    21:00 +11°C° 0 mm 1 mps 726 mmHg 71%
    22:00 +9°C° 0 mm 0 mps 727 mmHg 73%
    23:00 +10°C° 0 mm 1 mps 726 mmHg 74%

    4 June, Thursday

    Time Temperature Precipitation Wind Pressure Humidity
    00:00 +9°C° 0 mm 1 mps 726 mmHg 75%
    01:00 +9°C° 0 mm 1 mps 726 mmHg 76%
    02:00 +9°C° 0 mm 1 mps 726 mmHg 77%
    03:00 +9°C° 0 mm 1 mps 726 mmHg 79%
    04:00 +9°C° 0 mm 1 mps 725 mmHg 81%
    05:00 +10°C° 0 mm 2 mps 725 mmHg 77%
    06:00 +13°C° 0 mm 2 mps 725 mmHg 73%
    07:00 +15°C° 0 mm 2 mps 725 mmHg 69%
    08:00 +16°C° 0 mm 2 mps 725 mmHg 66%
    09:00 +18°C° 0 mm 2 mps 725 mmHg 63%
    10:00 +19°C° 0 mm 3 mps 725 mmHg 59%
    11:00 +20°C° 0 mm 3 mps 724 mmHg 57%
    12:00 +21°C° 0 mm 3 mps 724 mmHg 56%
    13:00 +22°C° 0 mm 3 mps 724 mmHg 54%
    14:00 +22°C° 0.3 mm 3 mps 723 mmHg 58%
    15:00 +21°C° 0.3 mm 3 mps 723 mmHg 63%
    16:00 +21°C° 0.3 mm 3 mps 722 mmHg 67%
    17:00 +19°C° 0.5 mm 2 mps 722 mmHg 73%
    18:00 +19°C° 0.5 mm 1 mps 722 mmHg 80%
    19:00 +16°C° 0.5 mm 1 mps 721 mmHg 86%
    20:00 +16°C° 0.4 mm 1 mps 721 mmHg 87%
    21:00 +16°C° 0.4 mm 2 mps 721 mmHg 89%
    22:00 +15°C° 0.4 mm 2 mps 721 mmHg 90%
    23:00 +14°C° 1.3 mm 3 mps 721 mmHg 92%

    5 June, Friday

    Time Temperature Precipitation Wind Pressure Humidity
    00:00 +14°C° 1.3 mm 4 mps 721 mmHg 93%
    01:00 +14°C° 1.3 mm 5 mps 721 mmHg 95%
    02:00 +14°C° 0.7 mm 4 mps 721 mmHg 95%
    03:00 +13°C° 0.7 mm 4 mps 722 mmHg 95%
    04:00 +13°C° 0.7 mm 4 mps 722 mmHg 96%
    05:00 +13°C° 0 mm 4 mps 723 mmHg 92%
    06:00 +13°C° 0 mm 4 mps 724 mmHg 88%
    07:00 +13°C° 0 mm 4 mps 724 mmHg 85%
    08:00 +14°C° 0 mm 4 mps 725 mmHg 80%
    09:00 +15°C° 0 mm 4 mps 725 mmHg 75%
    10:00 +17°C° 0 mm 4 mps 726 mmHg 70%
    11:00 +18°C° 0 mm 3 mps 726 mmHg 66%
    12:00 +19°C° 0 mm 3 mps 726 mmHg 62%
    13:00 +21°C° 0 mm 3 mps 726 mmHg 58%
    14:00 +21°C° 0.2 mm 3 mps 725 mmHg 61%
    15:00 +21°C° 0.2 mm 4 mps 725 mmHg 64%
    16:00 +21°C° 0.2 mm 4 mps 725 mmHg 67%
    17:00 +20°C° 0.1 mm 4 mps 725 mmHg 72%
    18:00 +19°C° 0.1 mm 3 mps 725 mmHg 77%
    19:00 +18°C° 0.1 mm 3 mps 725 mmHg 81%
    20:00 +17°C° 0 mm 3 mps 725 mmHg 84%
    21:00 +16°C° 0 mm 3 mps 725 mmHg 87%
    22:00 +15°C° 0 mm 2 mps 725 mmHg 89%
    23:00 +15°C° 0 mm 2 mps 725 mmHg 90%
    Show more